GW1738 Weather Reports


time (UTC)temp
F
wind
direction
speed
knots
gust
knots
rain 1hr
in
rain 24hr
in
rain mn
in
humidity
%
barometer
mb
20260507181316 52 167 0.9 1.7 0.01 1.25 1.24 91 1011.2
20260507180328 52 140 0.9 1.7 0.00 1.24 1.23 91 1011.2
20260507175332 52 112 0.0 1.7 0.00 1.24 1.23 92 1011.2
20260507174316 52 136 0.0 1.7 0.00 1.24 1.23 93 1011.4
20260507173320 52 270 0.0 2.6 0.00 1.24 1.23 93 1011.6
20260507172321 53 148 0.9 2.6 0.00 1.24 1.23 92 1011.8
20260507171355 53 277 0.0 2.6 0.00 1.24 1.23 95 1011.7
20260507170357 53 276 0.0 0.9 0.00 1.24 1.23 94 1011.9
20260507164322 53 251 0.9 1.7 0.00 1.24 1.23 92 1012.1
20260507163326 53 200 0.0 1.7 0.00 1.24 1.23 94 1012.1
20260507162329 53 198 0.0 4.3 0.00 1.24 1.23 94 1012.3
20260507161318 53 132 0.0 1.7 0.00 1.24 1.23 94 1012.1
20260507160322 54 118 0.0 0.9 0.00 1.27 1.23 96 1011.9
20260507155324 54 118 0.0 0.9 0.00 1.27 1.23 96 1012.3
20260507154324 54 118 0.0 1.7 0.00 1.27 1.23 96 1011.7
20260507153325 54 216 0.0 0.9 0.00 1.27 1.23 95 1012.1
20260507152329 54 216 0.0 0.9 0.00 1.27 1.23 96 1011.9
20260507151335 54 177 0.0 0.9 0.00 1.27 1.23 96 1012.1
20260507150339 54 170 0.0 0.0 0.00 1.30 1.23 96 1012.1
20260507145323 54 170 0.0 0.9 0.00 1.30 1.23 96 1012.1
20260507144327 54 170 0.0 1.7 0.00 1.30 1.23 96 1012.0
20260507143330 54 134 0.0 2.6 0.00 1.30 1.23 95 1011.5
20260507142352 55 135 0.0 1.7 0.00 1.30 1.23 96 1012.0
20260507141319 55 132 0.0 1.7 0.00 1.30 1.23 95 1012.0
20260507140322 55 131 0.0 1.7 0.00 1.31 1.23 94 1012.2
20260507135341 56 190 0.9 3.5 0.00 1.31 1.23 95 1012.1
20260507134326 56 253 0.0 1.7 0.00 1.31 1.23 98 1012.1
20260507133331 56 209 0.9 1.7 0.00 1.31 1.23 98 1012.0
20260507132337 56 242 0.0 0.9 0.00 1.31 1.23 99 1011.6
20260507131327 56 175 0.0 0.9 0.00 1.31 1.23 98 1011.4
20260507130331 56 175 0.0 0.9 0.00 1.31 1.23 98 1011.5
20260507125333 56 157 0.0 0.9 0.00 1.31 1.23 98 1011.6
20260507124316 56 157 0.0 0.9 0.00 1.31 1.23 98 1011.8
20260507123321 56 169 0.0 0.9 0.01 1.31 1.23 98 1011.7
20260507122344 56 169 0.0 0.9 0.01 1.31 1.23 98 1011.6
20260507121346 56 144 0.0 0.9 0.01 1.31 1.23 98 1011.4
20260507120331 56 137 0.0 0.9 0.01 1.31 1.23 98 1011.4
20260507115333 56 137 0.0 0.9 0.01 1.31 1.23 98 1011.4
20260507114404 55 137 0.0 0.0 0.02 1.31 1.23 98 1011.8
20260507113347 55 137 0.0 0.0 0.03 1.30 1.22 98 1011.5
20260507112330 55 137 0.0 0.9 0.14 1.30 1.22 98 1011.6
20260507111338 55 137 0.0 0.9 0.24 1.30 1.22 98 1011.0
20260507110316 55 136 0.0 0.9 0.37 1.30 1.22 97 1011.4
20260507105317 55 136 0.0 1.7 0.52 1.30 1.22 97 1011.1
20260507104340 55 93 0.0 2.6 0.70 1.29 1.21 96 1011.1
20260507103323 56 327 0.0 1.7 0.99 1.27 1.19 96 1011.0
20260507102324 56 282 0.9 3.5 1.02 1.15 1.07 95 1011.0
20260507101328 57 229 0.0 3.5 0.96 1.06 0.98 95 1010.8
20260507100330 58 46 1.7 3.5 0.84 0.93 0.85 95 1010.5
20260507095334 58 167 1.7 3.5 0.70 0.78 0.70 94 1010.8
20260507094337 60 283 0.9 5.2 0.51 0.59 0.51 93 1010.2
20260507093342 63 291 1.7 4.3 0.19 0.27 0.19 91 1010.4
20260507092324 66 9 0.0 1.7 0.05 0.13 0.05 97 1009.9
20260507091330 66 117 0.0 1.7 0.02 0.10 0.02 96 1010.1
20260507090334 66 95 0.0 0.0 0.01 0.09 0.01 96 1009.9
20260507085316 66 95 0.0 0.0 0.00 0.08 0.00 96 1009.9
20260507084342 66 95 0.0 0.9 0.00 0.08 0.00 96 1010.0
20260507083324 66 59 0.0 0.9 0.00 0.08 0.00 96 1009.8
20260507082325 66 35 0.0 0.0 0.00 0.08 0.00 95 1009.7
20260507081352 66 35 0.0 0.9 0.00 0.08 0.00 95 1009.3
20260507080403 66 35 0.0 0.9 0.00 0.08 0.00 95 1009.3
20260507075325 66 5 0.9 1.7 0.00 0.08 0.00 95 1009.2
20260507074348 66 37 0.0 0.9 0.00 0.08 0.00 95 1008.9
20260507073331 66 26 0.0 1.7 0.00 0.08 0.00 95 1009.0
20260507072316 66 69 0.0 1.7 0.00 0.08 0.00 96 1009.3
20260507071327 66 75 0.0 0.9 0.00 0.08 0.00 96 1009.5
20260507070331 66 70 0.0 0.9 0.00 0.08 0.00 96 1009.8
20260507065338 65 74 0.0 0.9 0.00 0.08 0.00 95 1009.6
20260507064336 65 74 0.0 0.9 0.00 0.08 0.00 95 1009.4
20260507063342 65 55 0.0 0.9 0.00 0.08 0.00 95 1009.5
20260507062325 65 55 0.0 0.9 0.00 0.08 0.00 95 1009.3
20260507061334 65 55 0.0 0.0 0.00 0.08 0.00 95 1009.5
20260507060337 65 55 0.0 0.0 0.00 0.08 0.00 95 1009.4
20260507055339 65 55 0.0 0.0 0.00 0.08 0.00 95 1009.4
20260507054322 66 46 0.0 0.0 0.00 0.08 0.00 94 1009.6
20260507053346 66 46 0.0 0.0 0.00 0.08 0.00 94 1009.5
20260507052325 66 46 0.0 0.0 0.00 0.08 0.00 94 1009.7
20260507051332 66 46 0.0 1.7 0.00 0.08 0.00 94 1009.8
20260507050335 66 46 0.0 1.7 0.00 0.08 0.00 94 1010.0
20260507045317 65 184 0.9 1.7 0.00 0.08 0.00 94 1010.5
20260507044336 65 155 0.0 0.0 0.00 0.08 0.00 94 1010.9
20260507043322 65 155 0.0 0.0 0.00 0.08 0.00 94 1011.0
20260507042354 65 155 0.0 0.0 0.00 0.08 0.00 94 1010.8
20260507041401 65 155 0.0 0.0 0.00 0.08 0.00 94 1010.6
20260507035326 65 155 0.0 0.0 0.00 0.08 0.08 94 1010.4
20260507034331 65 155 0.0 0.9 0.00 0.08 0.08 94 1010.5
20260507033355 65 155 0.0 0.9 0.00 0.08 0.08 94 1010.4
20260507032337 65 155 0.0 0.9 0.00 0.08 0.08 94 1010.1
20260507031324 65 155 0.0 0.9 0.00 0.08 0.08 94 1010.1
20260507030353 65 155 0.0 0.0 0.00 0.08 0.08 94 1010.4
20260507025316 65 155 0.0 0.9 0.00 0.08 0.08 94 1010.0
20260507024348 65 155 0.0 0.0 0.00 0.08 0.08 94 1010.1
20260507023351 65 155 0.0 0.0 0.00 0.08 0.08 94 1010.3
20260507022334 65 155 0.0 0.0 0.00 0.08 0.08 94 1010.4
20260507021342 65 155 0.0 0.0 0.00 0.08 0.08 94 1010.3
20260507020326 65 155 0.0 0.0 0.00 0.08 0.08 94 1010.6
20260507015328 65 155 0.0 0.0 0.00 0.08 0.08 94 1011.0
20260507014332 65 155 0.0 0.0 0.00 0.08 0.08 94 1010.6
20260507013350 65 155 0.0 0.0 0.00 0.08 0.08 93 1010.4
20260507012333 65 155 0.0 0.0 0.00 0.08 0.08 93 1010.4
20260507011339 65 155 0.0 0.0 0.00 0.08 0.08 92 1010.3
20260507010323 66 155 0.0 0.0 0.00 0.08 0.08 91 1010.3
20260507005355 66 155 0.0 0.0 0.00 0.08 0.08 91 1010.3
20260507004337 66 155 0.0 0.0 0.00 0.08 0.08 91 1010.1
20260507003339 67 155 0.0 0.0 0.00 0.08 0.08 90 1010.3
20260507002323 67 155 0.0 0.9 0.00 0.08 0.08 90 1010.4
20260507001330 67 155 0.0 0.0 0.00 0.08 0.08 89 1010.5
20260507000354 67 155 0.0 0.0 0.00 0.08 0.08 90 1010.7
20260506235317 68 155 0.0 0.0 0.00 0.08 0.08 90 1010.5
20260506234338 68 155 0.0 0.0 0.00 0.08 0.08 88 1010.3
20260506233342 68 155 0.0 0.0 0.00 0.08 0.08 88 1010.1
20260506232324 69 155 0.0 0.0 0.00 0.08 0.08 88 1010.1
20260506231332 69 155 0.0 0.9 0.00 0.08 0.08 88 1010.1
20260506230336 69 155 0.0 0.9 0.00 0.08 0.08 87 1010.3
20260506225335 69 155 0.0 0.0 0.00 0.08 0.08 86 1010.2
20260506224339 69 155 0.0 0.0 0.00 0.08 0.08 86 1010.2
20260506223341 69 155 0.0 0.9 0.00 0.08 0.08 84 1010.2
20260506222324 70 155 0.0 0.9 0.00 0.08 0.08 83 1010.2
20260506221332 70 155 0.0 0.9 0.00 0.08 0.08 82 1010.1
20260506220318 70 155 0.9 1.7 0.00 0.08 0.08 81 1010.2
20260506215338 70 238 0.0 1.7 0.00 0.08 0.08 80 1010.0
20260506214322 70 196 0.0 3.5 0.00 0.08 0.08 80 1010.1
20260506213346 70 279 0.9 1.7 0.00 0.08 0.08 80 1010.3
20260506212329 70 227 0.0 1.7 0.00 0.08 0.08 81 1010.4
20260506211337 69 240 0.9 1.7 0.00 0.08 0.08 80 1010.4
20260506210320 69 214 0.9 1.7 0.00 0.08 0.08 84 1010.2
20260506205325 69 179 0.9 1.7 0.00 0.08 0.08 84 1010.0
20260506204331 69 188 0.0 0.9 0.00 0.08 0.08 85 1010.4
20260506203333 69 188 0.0 1.7 0.00 0.08 0.08 86 1010.3
20260506202319 69 253 0.0 1.7 0.00 0.08 0.08 85 1010.4
20260506201328 69 216 0.0 1.7 0.00 0.08 0.08 84 1010.1
20260506200331 69 167 0.9 1.7 0.00 0.08 0.08 83 1009.9
20260506195333 69 236 0.9 7.0 0.00 0.08 0.08 85 1009.6
20260506194334 68 180 0.9 4.3 0.00 0.08 0.08 85 1009.6
20260506193338 68 182 0.0 1.7 0.01 0.08 0.08 86 1009.6
20260506192319 68 197 0.0 2.6 0.01 0.08 0.08 88 1009.9
20260506191327 67 252 0.9 3.5 0.01 0.08 0.08 87 1010.0
20260506190328 67 172 0.9 3.5 0.01 0.08 0.08 88 1010.1
20260506185400 66 148 0.0 1.7 0.01 0.08 0.08 90 1010.2
20260506184341 66 158 0.0 1.7 0.01 0.08 0.08 91 1010.9
20260506183324 65 218 0.0 3.5 0.00 0.07 0.07 92 1011.3
20260506182326 65 257 0.0 0.9 0.00 0.07 0.07 94 1011.6